Regional Weather Roundup
Issued by NWS

Home | Current Version | Previous Version | Graphics & Text | Print | Product List | Glossary On
Versions: 1 2 3 4 5 6 7 8 9 10 11 12 13 14 15 16 17 18 19 20 21 22 23 24 25 26 27 28 29 30 31 32 33 34 35 36 37 38 39 40 41 42 43 44 45 46 47 48 49 50
000
ASUS43 KTOP 221959
RWRKS

WEATHER ROUNDUP FOR KANSAS
NATIONAL WEATHER SERVICE GOODLAND KS
300 PM CDT WED OCT 22 2014

NOTE:  "FAIR" INDICATES FEW OR NO CLOUDS BELOW 12,000 FEET WITH NO
SIGNIFICANT WEATHER AND/OR OBSTRUCTIONS TO VISIBILITY.

KSZ001>006-013>018-027>032-041>047-222100-
NORTHWEST KANSAS

CITY           SKY/WX    TMP DP  RH WIND       PRES   REMARKS
GOODLAND       SUNNY     73  45  36 N10       30.02F
HAYS           CLOUDY    72  54  53 S25G32    29.99S
HILL CITY      CLOUDY    73  56  54 S15G21    29.97F
RUSSELL        CLOUDY    74  52  46 S20G30    29.98F
$$

KSZ061>065-074>080-084>089-222100-
SOUTHWEST KANSAS

CITY           SKY/WX    TMP DP  RH WIND       PRES   REMARKS
DODGE CITY     CLOUDY    64  54  69 S23G31    30.02F
ELKHART          N/A     74  52  46 SW9         N/A
GARDEN CITY    CLOUDY    73  56  54 S24G30    29.98F
GREAT BEND     CLOUDY    73  54  49 S26G32    30.01S
LIBERAL        PTSUNNY   72  55  56 S22G31    30.03F
$$

KSZ066>073-081>083-090>101-222100-
SOUTHEAST KANSAS

CITY           SKY/WX    TMP DP  RH WIND       PRES   REMARKS
CHANUTE        MOSUNNY   77  61  57 S14       30.10F
COFFEYVILLE    MOSUNNY   77  61  57 S10       30.10F
HUTCHINSON     SUNNY     79  49  34 S26G36    30.04F
NEWTON         PTSUNNY   77  54  44 S21G28    30.08F
PARSONS        MOSUNNY   78  60  53 S10G17    30.11F
WICHITA INTL   PTSUNNY   77  54  44 S25G31    30.05F
WICHITA JABRA  MOSUNNY   77  55  46 S17       30.06F
WICHITA MCCONL MOSUNNY   77  55  46 S18G26    30.07F
WINFIELD       MOSUNNY   77  58  51 S17       30.09F
$$

KSZ007>012-019>026-033>040-048>060-102>105-222100-
NORTHEAST KANSAS

CITY           SKY/WX    TMP DP  RH WIND       PRES   REMARKS
CONCORDIA      SUNNY     77  54  44 S21G31    29.99F
EMPORIA        LGT RAIN  78  56  46 S17       30.08F
LAWRENCE       SUNNY     74  56  53 S12       30.09F
MANHATTAN      MOSUNNY   78  54  43 S12G31    30.03F
OLATHE IND     SUNNY     72  57  59 S14       30.11F
OLATHE EXE     SUNNY     71  57  61 SE10      30.11F
SALINA         SUNNY     79  53  40 S23G33    30.02F
TOPEKA BILLARD MOSUNNY   78  58  49 S14       30.07F
TOPEKA FORBES  MOSUNNY   78  57  48 S15G23    30.07F
$$



USA.gov is the U.S. government's official web portal to all federal, state and local government web resources and services.